Tracking 30970 objects as of 3-Jul-2025
HD Live streaming from Space Station
objects crossing your sky now

SL-3 R/B

Track SL-3 R/B now!
10-day predictions


NORAD ID: 8800
Int'l Code: 1976-032B
Perigee: 795.5 km
Apogee: 933.5 km
Inclination: 81.2 °
Period: 102.1 minutes
Semi major axis: 7235 km
RCS: 7.6301 m2 (large)
Launch date: April 7, 1976
Source: Commonwealth of Independent States (former USSR) (CIS)
Launch site: PLESETSK MISSILE AND SPACE COMPLEX (PKMTR)

Note: This is a ROCKET BODY
Your satellite tracking list
Your tracking list is empty




NASA's NSSDC Master Catalog

Two Line Element Set (TLE):
1  8800U 76032B   25184.18991247  .00000169  00000-0  83671-4 0  9990
2  8800  81.2493 238.4511 0095352 144.9596 215.7900 14.10588013532275
Source of the keplerian elements: AFSPC